TimeEDT,TemperatureF,Dew PointF,Humidity,Sea Level PressureIn,VisibilityMPH,Wind Direction,Wind SpeedMPH,Gust SpeedMPH,PrecipitationIn,Events,Conditions,WindDirDegrees,DateUTC
12:56 AM,60.1,48.0,64,30.15,10.0,NNE,5.8,-,N/A,,Clear,20,2012-10-22 04:56:00
1:56 AM,62.1,46.9,58,30.16,10.0,North,5.8,-,N/A,,Clear,10,2012-10-22 05:56:00
2:56 AM,61.0,46.9,60,30.16,10.0,North,4.6,-,N/A,,Clear,10,2012-10-22 06:56:00
3:56 AM,60.1,46.0,60,30.16,10.0,North,3.5,-,N/A,,Clear,350,2012-10-22 07:56:00
4:56 AM,60.1,48.0,64,30.16,10.0,Calm,Calm,-,N/A,,Clear,0,2012-10-22 08:56:00
5:56 AM,59.0,51.1,75,30.18,10.0,North,6.9,-,N/A,,Clear,350,2012-10-22 09:56:00
6:56 AM,57.9,51.1,78,30.19,10.0,NNW,4.6,-,N/A,,Clear,330,2012-10-22 10:56:00
7:56 AM,57.9,52.0,81,30.21,10.0,NW,6.9,-,N/A,,Clear,310,2012-10-22 11:56:00
8:56 AM,62.1,52.0,70,30.23,10.0,NW,8.1,-,N/A,,Clear,310,2012-10-22 12:56:00
9:52 AM,64.4,48.2,56,30.22,1.8,NNW,9.2,-,N/A,,Haze,340,2012-10-22 13:52:00
9:56 AM,64.0,48.0,56,30.24,1.5,NNW,9.2,-,N/A,,Haze,340,2012-10-22 13:56:00
10:07 AM,64.4,48.2,56,30.22,10.0,NNW,10.4,-,N/A,,Clear,330,2012-10-22 14:07:00
10:33 AM,64.4,48.2,56,30.22,1.8,NNW,11.5,-,N/A,,Haze,340,2012-10-22 14:33:00
10:48 AM,64.4,48.2,56,30.22,10.0,North,9.2,-,N/A,,Clear,10,2012-10-22 14:48:00
10:56 AM,66.0,48.9,54,30.23,10.0,North,6.9,-,N/A,,Clear,10,2012-10-22 14:56:00
11:56 AM,66.9,46.9,49,30.23,10.0,North,6.9,-,N/A,,Clear,10,2012-10-22 15:56:00
12:56 PM,68.0,46.9,47,30.21,10.0,NW,8.1,-,N/A,,Clear,320,2012-10-22 16:56:00
1:56 PM,69.1,46.0,44,30.19,10.0,NW,6.9,-,N/A,,Clear,320,2012-10-22 17:56:00
2:56 PM,70.0,44.1,39,30.17,10.0,NE,4.6,-,N/A,,Clear,40,2012-10-22 18:56:00
3:56 PM,71.1,46.0,41,30.17,10.0,North,5.8,-,N/A,,Clear,360,2012-10-22 19:56:00
4:56 PM,71.1,46.0,41,30.16,10.0,NNW,5.8,-,N/A,,Clear,340,2012-10-22 20:56:00
5:56 PM,69.1,48.9,49,30.17,10.0,NNW,4.6,-,N/A,,Clear,330,2012-10-22 21:56:00
6:56 PM,66.9,48.9,52,30.17,10.0,NW,6.9,-,N/A,,Clear,310,2012-10-22 22:56:00
7:56 PM,66.9,48.9,52,30.18,10.0,NNW,3.5,-,N/A,,Clear,330,2012-10-22 23:56:00
8:56 PM,64.0,50.0,60,30.18,10.0,Calm,Calm,-,N/A,,Clear,0,2012-10-23 00:56:00
9:56 PM,62.1,46.9,58,30.19,10.0,SW,3.5,-,N/A,,Clear,220,2012-10-23 01:56:00
10:56 PM,59.0,48.0,67,30.19,10.0,SSW,5.8,-,N/A,,Clear,200,2012-10-23 02:56:00
11:56 PM,60.1,48.0,64,30.20,10.0,SSW,4.6,-,N/A,,Clear,200,2012-10-23 03:56:00